{"data":{"norad_id":58769,"intl_designator":"2024-011E","name":"STARLINK-31146","alt_names":[],"object_type":"PAYLOAD","status":"ACTIVE","operator":null,"country":"US","launch_date":"2024-01-14","launch_site_code":"AFWTR","launch_vehicle":null,"mission":null,"orbit_class":"UNKNOWN","rcs_meters":null,"size_class":null,"mass_kg":null,"dimensions":null,"purposes":["comms"],"wikipedia_slug":null,"has_3d_model":false,"image_url":null,"decayed_at":null,"tle_current":{"epoch":"2026-05-25T01:23:55.149216Z","epoch_age_seconds":80095,"freshness":"FRESH","line1":"1 58769U 24011E   26145.05827719  .00000329  00000+0  23242-4 0  9990","line2":"2 58769  53.1611  18.8809 0001376  76.2440 283.8714 15.30184925131969","mean_motion":15.30184925,"eccentricity":0.0001376,"inclination_deg":53.1611,"raan_deg":18.8809,"arg_perigee_deg":76.244,"mean_anomaly_deg":283.8714,"bstar":2.3242e-5,"rev_number":13196,"period_min":94.106272808824,"perigee_km":474.31705358322,"apogee_km":476.20310845992,"semimajor_km":6853.3970810216,"source":"CELESTRAK","updated_at":"2026-05-25T13:38:18.744402Z"}}}